Sigfox identifier Datetime Temperature Humidity SNR
003A8283 2018-10-09 08:50:10 21.3 39 18.9
003A8283 2018-10-09 07:42:02 21.4 38 18.9
003A8283 2018-10-09 06:33:53 21.4 38 18.9
003A8283 2018-10-09 05:25:45 21.3 38 18.6
003A8283 2018-10-09 02:01:25 21.4 37 18.5
003A8283 2018-10-09 00:53:14 21.4 37 18.2
003A8283 2018-10-08 23:45:08 21.4 36 18.1
003A8283 2018-10-08 22:37:03 21.4 36 17.8
003A8283 2018-10-08 21:28:59 21.4 36 17.8
003A8283 2018-10-08 20:20:53 21.4 36 17.7
003A8283 2018-10-08 19:12:52 21.4 36 17.7
003A8283 2018-10-08 18:04:48 21.3 35 17.6
003A8283 2018-10-08 16:56:44 21.4 35 17.7
003A8283 2018-10-08 15:48:36 21.2 35 13.2
003A8283 2018-10-08 14:40:30 21.2 34 13.1
003A8283 2018-10-08 13:32:24 21.2 34 13.2
003A8283 2018-10-08 08:59:56 20.9 34 13
003A8283 2018-10-08 07:51:44 20.9 35 13
003A8283 2018-10-08 06:43:38 20.9 35 13
003A8283 2018-10-08 05:35:27 21 35 12.9
003A8283 2018-10-08 04:27:17 21 35 12.9
003A8283 2018-10-08 03:19:14 21 36 12.9
003A8283 2018-10-08 02:11:02 20.9 36 13
003A8283 2018-10-08 01:02:58 20.9 36 13.2
003A8283 2018-10-07 23:54:52 21 36 13.5
003A8283 2018-10-07 22:46:43 21 37 13.7
003A8283 2018-10-07 21:38:38 21 37 13.7
003A8283 2018-10-07 20:30:28 21 37 13.8
003A8283 2018-10-07 19:22:21 21 37 14.3
003A8283 2018-10-07 18:14:13 21 37 13.7
003A8283 2018-10-07 17:06:06 21.1 37 13.6
003A8283 2018-10-07 15:58:01 21 37 14
003A8283 2018-10-07 14:49:56 21 37 14
003A8283 2018-10-07 13:41:46 21.1 37 14
003A8283 2018-10-07 11:25:22 21.1 37 14
003A8283 2018-10-07 10:17:11 21.1 37 13.7
003A8283 2018-10-07 09:09:05 21.1 38 13.7
003A8283 2018-10-07 08:00:51 21.1 38 13.4
003A8283 2018-10-07 06:52:43 21.1 38 13.3
003A8283 2018-10-07 05:44:26 21.1 38 13.3
003A8283 2018-10-07 04:36:18 21.1 38 13.1
003A8283 2018-10-07 03:28:09 21.1 38 13.3
003A8283 2018-10-07 02:19:59 21.2 38 13.3
003A8283 2018-10-07 01:11:51 21.2 38 13.3
003A8283 2018-10-07 00:03:45 21.2 38 13.2
003A8283 2018-10-06 22:55:36 21.2 38 13.3
003A8283 2018-10-06 21:47:27 21.3 38 13.3
003A8283 2018-10-06 20:39:22 21.2 38 13.4
003A8283 2018-10-06 19:31:18 21.3 38 13.5
003A8283 2018-10-06 18:23:10 21.3 38 13.2
003A8283 2018-10-06 17:15:04 21.2 38 13
003A8283 2018-10-06 16:07:01 21.3 39 13.1
003A8283 2018-10-06 14:58:56 21.3 39 13.1
003A8283 2018-10-06 13:50:46 21.4 39 12.2
003A8283 2018-10-06 12:42:37 21.3 39 12.8
003A8283 2018-10-06 11:34:28 21.3 39 13.4
003A8283 2018-10-06 10:26:20 21.4 39 13.1
003A8283 2018-10-06 09:18:14 21.4 39 13.4
003A8283 2018-10-06 08:10:07 21.4 39 13.6
003A8283 2018-10-06 07:01:59 21.3 39 13.7
003A8283 2018-10-06 05:53:54 21.4 40 13.7
003A8283 2018-10-06 04:45:46 21.4 40 13.9
003A8283 2018-10-06 03:37:38 21.5 40 14.1
003A8283 2018-10-06 02:29:33 21.6 40 14.2
003A8283 2018-10-06 01:21:24 21.5 40 14.1
003A8283 2018-10-06 00:13:16 21.5 41 14.2
003A8283 2018-10-05 23:05:07 21.5 41 14.8
003A8283 2018-10-05 21:56:56 21.6 41 14.8
003A8283 2018-10-05 20:48:45 21.8 41 15
003A8283 2018-10-05 19:40:36 21.8 41 14.9
003A8283 2018-10-05 18:32:21 21.7 41 14.9
003A8283 2018-10-05 17:24:12 21.8 41 14.9
003A8283 2018-10-05 16:16:04 21.8 41 14.6
003A8283 2018-10-05 15:07:54 21.7 41 15
003A8283 2018-10-05 13:59:43 21.6 40 15.1
003A8283 2018-10-05 11:43:18 21.4 40 15.2
003A8283 2018-10-05 10:35:14 21.3 36 15
003A8283 2018-10-05 09:27:00 21.2 33 15.1
003A8283 2018-10-05 08:18:47 21 31 15.3
003A8283 2018-10-05 07:10:32 21 29 15.4
003A8283 2018-10-05 06:02:12 21 29 15.2
003A8283 2018-10-05 04:53:56 21 28 15.2
003A8283 2018-10-05 03:45:42 21.1 28 15.2
003A8283 2018-10-05 02:37:28 21.1 29 15
003A8283 2018-10-05 01:29:16 21.1 29 15
003A8283 2018-10-05 00:21:05 21.1 29 15
003A8283 2018-10-04 23:12:51 21.3 29 14.9
003A8283 2018-10-04 22:04:41 21.3 29 16.4
003A8283 2018-10-04 20:56:28 21.4 29 16.4
003A8283 2018-10-04 19:48:21 21.1 29 16.7
003A8283 2018-10-04 18:40:10 21.1 29 16.9
003A8283 2018-10-04 17:32:04 21.2 29 16.5
003A8283 2018-10-04 16:23:57 20.9 30 16.7
003A8283 2018-10-04 15:15:49 20.7 29 16.7
003A8283 2018-10-04 14:07:42 20.5 29 16.9
003A8283 2018-10-04 11:51:23 20.5 31 17.1
003A8283 2018-10-04 10:43:14 20.3 32 17.3
003A8283 2018-10-04 09:35:06 20.3 33 17.6
003A8283 2018-10-04 08:26:59 20.2 32 17.4
003A8283 2018-10-04 07:18:53 20.3 36 17.5
003A8283 2018-10-04 06:10:42 20.3 37 17.7
003A8283 2018-10-04 05:02:34 20.3 38 17.9
003A8283 2018-10-04 03:54:25 20.3 38 18.2
003A8283 2018-10-04 02:46:14 20.3 39 18.3
003A8283 2018-10-04 01:38:05 20.4 39 18.2
003A8283 2018-10-04 00:29:54 20.4 40 18.3
003A8283 2018-10-03 23:21:41 20.5 40 18.6
003A8283 2018-10-03 22:13:31 20.5 41 18.9
003A8283 2018-10-03 21:05:21 20.5 41 19.5
003A8283 2018-10-03 19:57:11 20.5 42 20.2
003A8283 2018-10-03 18:49:02 20.5 42 21.1
003A8283 2018-10-03 17:40:50 20.7 42 22.3
003A8283 2018-10-03 16:32:30 20.7 44 17.7
003A8283 2018-10-03 14:16:03 20.7 45 19.8
003A8283 2018-10-03 13:07:45 20.1 55 0